Regional Weather Roundup
Issued by NWS Newport/Morehead, NC

Current Version | Previous Version | Graphics & Text | Print | Product List | Glossary On
Versions: 1 2 3 4 5 6 7 8 9 10 11 12 13 14 15 16 17 18 19 20 21 22 23 24 25 26 27 28 29 30 31 32 33 34 35 36 37 38 39 40 41 42 43 44 45 46 47 48 49 50
786 ASUS42 KMHX 242125 RWRMHX WEATHER ROUNDUP FOR EASTERN NORTH CAROLINA NATIONAL WEATHER SERVICE NEWPORT/MOREHEAD CITY NC 500 PM EDT SAT JUN 24 2017 NOTE: "FAIR" INDICATES FEW OR NO CLOUDS BELOW 12,000 FEET WITH NO SIGNIFICANT WEATHER AND/OR OBSTRUCTIONS TO VISIBILITY NCZ015>017-031-032-045>047-102-103-242200- NORTH COAST CITY SKY/WX TMP DP RH WIND PRES REMARKS EDENTON MOSUNNY 91 71 52 CALM 29.90F ELIZABETH CITY SUNNY 90 73 57 SW9 29.89F KITTY HAWK PTCLDY 89 68 49 E3 29.90R MANTEO PTSUNNY 87 71 59 NE5 29.91R $$ NCZ045>047-081-094-103-104-242200- CENTRAL COAST CITY SKY/WX TMP DP RH WIND PRES REMARKS FRISCO SUNNY 82 75 79 SW15G22 29.95R $$ NCZ095-097-098-100-101-242200- SOUTHERN COAST CITY SKY/WX TMP DP RH WIND PRES REMARKS BEAUFORT SUNNY 84 79 85 SW22G28 29.93S CEDAR ISLAND NOT AVBL JACKSONVILLE SUNNY 89 78 70 SW14 29.89F HX 103 PINEY ISLAND CLOUDY N/A N/A N/A W6 29.94R WILMINGTON SUNNY 89 73 59 SW21G28 29.92F $$ NCZ011>013-027>030-043-044-078>080-089-090>093-098-242200- COASTAL PLAIN CITY SKY/WX TMP DP RH WIND PRES REMARKS AHOSKIE N/A 86 72 64 CALM 29.90F CLINTON PTSUNNY 84 78 80 CALM 29.91S ELIZABETHTOWN NOT AVBL GOLDSBORO CLOUDY 79 79 100 CALM 29.90R GREENVILLE CLOUDY 90 73 58 SW12 29.93R HAVELOCK PTSUNNY 87 73 62 SW16G26 29.92R KENANSVILLE CLOUDY 81 77 89 N6 29.91R KINSTON LGT RAIN 75 73 94 N3 29.93R NEW BERN MOSUNNY 83 78 85 E7 29.93R RICHLANDS MOSUNNY 92 74 55 SW13G21 29.90F HX 101 ROCKY MOUNT CLOUDY 88 72 58 W5 29.90F WASHINGTON CLOUDY N/A N/A N/A S5 29.92R WHITEVILLE MOSUNNY 92 73 53 S13G20 29.91F HX 100 $$ AMZ130-135-150-152-154-156-158-170-250-252-270-ANZ085-086-088-633-658-670-242200- MARINE OBSERVATIONS STATION/POSITION TIME TEMP WIND PRES WAVE SWELL AIR SEA DIR/SP/G HT/PER HT/PER (UTC) (F) (DEG/KT/KT) (MB) (FT/S) (FT/S) CHESAPEAKE LIGHT NOT AVBL 64 E VA BEACH 2050 76 74 180/ 2/ 4 1013.2 5/ 7 5/ 7 DUCK 2100 88 59 270/ 7/ 10 1012.2 2 E DUCK NOT AVBL OREGON INLET 2100 83 84 200/ 20/ 21 1012.7 13E OREGON INLT 2048 74 N/A 4/ 7 2/ 7 HATTERAS CG 2100 80 79 220/ 13/ 19 1013.7 DIAMOND BUOY 2050 81 80 230/ 19/ 23 1013.8 7/ 7 CAPE LOOKOUT 2100 82 210/ 16/ 20 1013.5 BEAUFORT LAB 2100 82 80 210/ 14/ 21 1013.0 30 SE NEW RVR IN 2108 80 80 220/ 17/ 23 1014.0 30 SE NEW RVR IN 2113 80 N/A 6/ 7 27 SE WRIGHTSVLE 2108 80 80 210/ 19/ 25 1013.2 5 SE WRIGHTSVLE 2108 80 79 200/ 14/ 21 1013.7 225 S CAPE HAT 2050 81 81 200/ 14/ 16 1018.9 4/ 5 2/ 9 41 SE CHARLESTON 2110 81 81 200/ 16/ 19 1016.0 $$

USA.gov is the U.S. government's official web portal to all federal, state and local government web resources and services.